Алискерово

Россия / Чукотский автономный округ     67°46′30″N   167°31′14″E
темп.,
°C
ветер,
м/с
пор.,
м/с
влажн.,
%
обл.,
%
осадки,
мм/ч
давл.,
гПа
погр.,
м
27 октября, ср
ср2700:00−27ссз1110087 0.1 10169
03:00−27сз1110090 0.0 10169
06:00−28ссз22100100 0.1 10189
09:00−29сз2110088 0.0 102010
12:00−27сз2210082 0.0 102123
15:00−27ссз229872 0.0 102110
18:00−31ссз1110055 0.0 10249
21:00−32с1110059 0.0 10259
28 октября, чт
чт2800:00−32ссв0010063 0.0 10259
03:00−32вюв1110069 0.0 10259
06:00−32юв1110065 0.0 10269
09:00−32юв1110039 0.0 10259
12:00−29юв119851 0.0 102419
15:00−29ююв119944 0.0 10239
18:00−31юв1110064 0.0 10239
21:00−32юв2110044 0.0 10229
29 октября, пт
пт2900:00−32ююв2210074 0.0 10219
03:00−33юв2210087 0.0 10219
06:00−33ююв2210090 0.0 10209
09:00−34юв2210087 0.0 10209
12:00−30ююв2210091 0.0 101830
15:00−30ююв2210071 0.0 101710
18:00−33ююв2210075 0.0 101810
21:00−33ююв2210087 0.0 101810
30 октября, сб
сб3000:00−33ююв2210088 0.0 101810
03:00−31ююв22100100 0.0 101717
06:00−30юв22100100 0.0 101612
09:00−29юв219889 0.0 101612
12:00−23ююв1187100 0.0 101548
15:00−21ююв0087100 0.0 101420
18:00−22ссз1190100 0.0 10159
21:00−23ссз1191100 0.0 10179
31 октября, вс
вс3100:00−25с2292100 0.0 101810
03:00−28с2296100 0.0 10199
06:00−26ссз1197100 0.0 101911
09:00−23сз1199100 0.1 101940
12:00−22сз229793 0.1 101991
15:00−23сз119982 0.1 102012
18:00−25сз2210092 0.1 102110
21:00−27ссз1110089 0.0 102310